COSMOS 1486

导读

COSMOS 1486是苏联(CIS前身)于1983年8月3日发射的人造卫星,隶属于苏联"宇宙"(COSMOS)系列卫星。该系列是苏联规模最大的卫星家族,涵盖军事侦察、科学试验等多种用途,统一命名方式可隐藏卫星真实使命,提升保密性。 作为冷战时期苏联航天活动的产物,COSMOS 1486承载着特定太空任务需求,如今多数同系列卫星已退役,部分成为空间碎片,是人类航天发展历程的见证者。

Basic Information
目录编号:
14240
目录名称:
COSMOS 1486
国际标识:
1983-079A
轨道中心:
EARTH
卫星名称:
COSMOS 1486
卫星全名:
--
卫星状态:
在轨 (已飞行15748 天)
发射日期:
1983-08-03 UTC
国别 :
俄罗斯(独联体) (CIS)
星等 :
--
This satellite is enrolled in the Space Conjunction Data Service (SCDS) and the current flight risk assessment level is: No High Risk
Orbit Information
数据来源 国际轨道数据 AOE轨道数据
星历时间 2026-09-13T19:11:30+0800
14小时前
查看轨道信息
2026-09-13T04:00:00+0800
1天前
查看轨道信息
半长轴 7153.573km 7153.575km
偏心率 0.0012872 0.0012959
轨道倾角 74.055° 74.056°
近地点辐角 148.852° 149.450°
升交点赤经 249.455° 250.612°
平近点角 328.947° 299.912°
近地点 766.227km 766.167km
远地点 784.645km 784.709km
周期 100.356分钟 100.356分钟
每日圈数 14.348889 14.348884
Detailed Information
使用方式:
暂无
2D Orbit Map
3D Orbit Map
Orbit Altitude Analysis Chart
Orbit Inclination Analysis Chart
Orbit Comprehensive Analysis Chart
View Comprehensive Chart
Miss Distance Evolution Trend with All Objects
Collision Probability Evolution Trend with All Objects